Theta_e
303 303 304 306 308 311 312 311 310 309 309 310 312 312 311 312 312 313 317 319 320 319 315 319 319 320 321 323 324 324 326 328 329 329 332 332 334 334 333 329 328 327 333 340 342
303 303 304 304 305 307 311 312 311 310 309 310 311 313 312 313 313 317 319 318 318 318 319 318 319 321 321 323 324 325 326 327 329 330 331 332 332 333 331 330 327 326 339 341 342
303 304 304 304 305 305 308 313 313 311 309 309 310 312 313 313 319 318 318 316 315 316 318 319 320 321 321 322 324 325 326 328 328 327 329 331 331 330 330 330 328 330 339 337 339
303 304 304 305 305 305 306 313 312 310 309 309 310 311 311 313 323 321 318 316 315 314 316 318 319 322 323 324 323 325 325 325 326 327 327 329 329 331 330 330 328 331 334 335 338
303 304 305 305 306 306 306 313 311 311 310 309 310 311 312 317 318 318 315 313 311 314 317 318 319 321 323 323 324 325 325 325 325 324 325 325 328 329 328 327 327 330 330 331 333
303 304 305 306 307 307 307 314 314 313 310 309 310 311 313 319 318 318 315 314 316 316 318 319 319 320 322 323 325 324 324 325 324 324 325 326 327 326 327 325 326 330 329 329 329
304 304 305 307 307 307 309 314 314 314 311 310 310 310 317 318 316 317 316 316 317 317 318 318 319 319 320 323 323 323 323 324 324 324 325 325 326 326 326 324 326 329 327 325 325
304 304 305 308 307 308 312 314 314 313 313 311 310 314 318 315 316 316 315 316 316 317 317 318 317 318 320 321 321 322 323 324 324 324 324 324 326 327 325 324 324 325 325 324 324
304 305 305 309 307 311 313 314 314 314 314 313 313 317 319 314 313 316 315 315 316 316 316 316 317 318 319 321 322 322 323 323 324 325 324 324 324 328 325 324 324 324 324 323 323
307 306 305 308 309 312 314 315 316 315 315 316 318 318 318 316 314 316 316 315 316 316 316 316 317 319 320 321 320 322 322 323 324 325 324 324 323 325 326 325 324 324 324 323 323
308 308 307 306 309 309 314 320 319 321 320 320 320 318 316 316 316 316 317 317 317 317 319 319 319 319 319 320 321 322 323 323 324 326 325 324 324 324 325 324 324 323 324 323 322
307 308 309 307 310 312 316 317 316 315 317 317 318 317 317 318 318 316 318 318 318 320 320 321 321 321 321 321 320 320 321 322 324 324 323 324 324 324 325 324 323 323 323 323 322
306 307 309 307 310 316 315 313 313 316 319 320 318 319 319 318 318 319 317 318 320 320 320 321 322 321 320 320 320 320 320 321 322 323 323 322 323 324 324 324 323 323 322 322 323
307 307 308 308 315 314 316 313 313 317 321 321 319 320 319 319 320 318 318 318 320 320 320 321 321 320 320 319 321 321 320 320 320 321 323 323 323 323 324 325 324 323 323 322 323
307 307 307 307 309 314 311 312 315 318 322 320 320 318 318 320 320 320 318 318 321 320 320 321 321 321 321 320 320 321 322 322 321 322 323 322 323 324 325 325 325 325 323 322 322
307 307 306 309 311 311 311 312 317 323 321 320 319 320 320 320 320 319 319 318 318 320 321 320 321 321 321 321 321 321 321 322 323 323 324 324 324 324 325 326 326 326 325 324 324
307 307 305 307 308 308 311 315 322 321 318 319 320 319 319 320 320 320 320 320 320 320 320 321 321 321 320 320 320 320 322 324 323 323 325 324 324 325 326 326 326 326 325 324 324
307 307 307 308 307 308 311 320 322 320 318 319 318 317 317 319 320 321 321 322 321 321 322 322 322 322 321 320 321 322 322 324 328 326 325 324 324 326 326 325 323 324 324 324 325
307 309 308 307 307 308 312 321 321 320 317 316 316 317 317 317 318 320 321 321 322 323 323 323 323 322 323 322 321 322 323 323 325 326 327 326 325 325 326 325 324 324 324 324 325
308 309 309 307 308 310 315 318 319 315 314 314 316 317 318 318 319 319 318 321 322 322 323 324 325 322 322 320 321 321 322 324 324 326 327 325 326 327 326 326 325 325 324 324 324
309 311 308 307 310 313 316 317 314 311 311 312 314 316 317 318 318 318 318 319 319 321 321 323 324 324 322 321 320 320 320 322 324 324 324 325 325 326 326 325 325 325 324 324 322
308 312 307 306 313 312 314 310 307 309 308 310 310 312 314 314 316 317 317 317 313 316 319 321 324 326 323 322 322 322 322 322 329 324 324 324 324 324 325 324 324 325 323 322 322
306 308 306 307 311 310 309 309 308 307 306 306 308 310 310 311 312 313 314 313 310 314 315 316 322 324 323 322 322 323 322 323 325 325 324 328 324 324 324 324 323 324 324 323 323
305 309 305 306 305 306 307 307 307 305 304 305 306 306 308 308 309 310 311 312 310 309 307 309 315 319 322 320 321 323 323 322 324 328 326 326 324 323 324 324 323 323 322 323 323
304 305 303 306 306 304 305 305 305 305 304 304 305 306 306 306 307 307 308 309 309 309 308 309 312 313 314 314 316 317 319 321 322 324 325 323 323 323 323 324 324 323 323 323 323
303 302 301 303 303 304 303 305 303 303 303 303 303 303 304 304 304 303 305 305 306 307 307 308 309 310 311 312 313 314 315 316 317 320 322 322 322 322 322 321 322 322 322 322 322
301 301 301 302 303 304 304 303 303 302 302 301 302 302 302 303 302 303 302 302 303 304 305 305 307 308 312 311 310 312 313 314 314 315 316 318 319 320 320 320 319 319 320 320 321
Wind_Speed
17 17 16 16 17 15 14 13 13 12 9 8 7 8 9 9 10 10 12 12 19 12 15 11 14 15 16 21 22 14 14 16 21 20 19 20 14 16 6 16 11 5 6 22 19
19 19 19 17 16 17 15 14 14 12 9 9 9 8 7 8 11 18 18 17 16 15 12 15 17 17 21 19 25 19 14 22 19 13 19 17 18 15 11 16 12 12 16 20 19
21 21 22 21 19 17 15 15 15 12 8 8 9 9 7 6 12 20 21 21 17 15 13 14 15 18 22 24 25 23 20 20 18 9 17 13 19 18 20 16 18 20 21 21 19
22 22 23 23 22 19 15 13 13 10 7 7 9 9 8 7 4 5 10 17 16 14 13 14 16 20 22 22 24 22 24 25 12 6 16 15 18 21 22 16 18 18 20 20 19
22 23 23 23 22 19 14 11 10 8 5 6 8 8 7 11 19 7 8 13 14 14 16 17 18 20 20 22 22 23 18 21 14 12 16 23 19 14 22 9 14 20 20 19 18
24 24 24 23 22 18 12 8 9 7 4 4 7 8 8 16 3 4 8 14 12 13 15 17 14 18 21 24 18 17 21 21 16 15 18 18 18 19 19 14 14 21 21 19 18
25 25 25 24 21 15 9 9 9 6 3 4 6 8 11 16 6 9 14 13 12 12 11 14 13 11 14 18 19 21 15 17 17 18 12 17 17 16 16 15 18 20 20 18 18
26 25 25 24 19 11 9 10 8 5 5 4 5 7 13 8 12 11 15 14 11 11 10 8 11 15 16 14 7 14 17 18 21 18 17 17 21 19 20 17 20 21 21 20 20
27 26 24 23 14 11 10 10 8 7 6 6 5 9 15 9 15 14 17 16 13 11 11 8 11 15 15 14 14 16 18 24 22 22 15 17 16 20 28 21 21 22 21 21 21
27 25 23 21 12 10 11 10 8 6 4 5 9 8 13 9 12 16 17 17 15 12 13 14 13 12 14 16 17 17 20 21 22 18 18 18 19 19 19 26 24 23 23 22 23
28 26 22 18 11 10 10 12 4 6 12 14 6 12 2 6 8 15 18 16 15 15 16 19 14 17 21 20 21 21 20 21 20 17 19 20 20 21 22 17 17 23 23 25 24
28 27 21 17 11 10 10 6 5 7 13 16 18 18 18 9 8 16 19 21 19 17 18 17 16 18 19 18 20 22 21 20 17 17 8 14 20 21 21 21 25 24 25 26 26
30 28 22 15 6 10 3 10 9 8 9 10 7 9 7 14 21 17 20 25 17 19 19 19 14 7 16 10 15 17 20 20 18 14 10 15 21 22 20 24 25 26 25 27 28
31 27 23 13 3 7 1 15 10 5 6 8 10 7 9 6 11 21 19 24 21 20 19 17 19 9 14 17 17 18 19 17 19 17 14 19 18 24 24 24 23 24 25 26 27
31 26 20 13 7 8 12 15 9 4 6 3 8 2 5 11 4 14 19 23 21 17 12 17 16 13 16 17 15 16 15 17 18 15 18 21 14 15 12 26 23 22 28 27 27
30 25 18 9 9 12 16 14 6 7 8 7 1 3 9 12 9 3 17 18 17 20 18 18 15 11 15 17 13 8 9 12 13 15 16 24 21 15 15 20 18 17 24 28 29
29 23 11 11 14 18 15 8 7 8 4 4 2 4 8 10 8 8 14 18 16 14 20 20 23 16 15 12 10 13 12 10 13 14 18 21 21 16 3 5 5 12 11 8 12
27 18 7 9 17 16 11 10 11 10 10 6 8 11 15 8 11 10 14 15 22 24 17 18 20 24 18 21 17 20 18 11 16 14 17 22 17 16 11 14 10 7 9 6 10
27 8 4 15 19 13 12 9 7 10 10 11 15 17 18 16 10 10 17 19 18 16 24 17 23 14 21 20 19 22 14 20 21 19 13 10 14 9 4 5 6 10 10 9 5
22 7 5 24 18 9 10 14 8 7 11 11 14 13 15 16 11 17 17 8 10 2 4 11 18 19 14 12 17 19 17 13 9 16 20 17 19 10 19 16 16 16 11 8 4
15 9 13 20 10 10 8 9 9 12 11 9 14 17 18 17 18 16 18 8 6 7 8 12 15 19 22 15 20 16 16 15 13 15 16 15 16 19 14 11 10 10 13 7 3
16 4 22 20 7 5 7 7 10 12 15 12 10 14 15 16 19 17 19 11 10 9 11 8 10 18 27 25 19 19 23 22 13 21 15 15 15 9 5 3 3 11 8 4 3
14 6 18 19 6 9 12 14 11 11 11 13 12 16 12 15 12 12 16 3 7 8 11 13 6 14 20 18 21 16 20 18 17 15 23 17 17 18 11 11 9 11 6 10 7
11 6 10 8 7 12 12 11 11 12 11 10 15 17 14 13 15 15 15 11 4 5 8 9 11 16 15 21 18 24 21 23 22 17 20 22 23 23 14 7 8 13 17 13 12
10 4 5 8 10 12 9 10 9 13 11 13 13 16 14 15 16 18 20 19 15 10 7 6 18 20 23 26 27 24 23 15 16 19 23 23 26 22 20 11 7 14 13 13 15
10 8 14 14 8 9 3 8 12 12 15 16 15 15 15 15 17 18 22 20 19 19 18 16 19 21 27 26 25 27 25 23 21 26 22 22 24 25 29 27 15 11 13 13 14
9 5 10 7 5 7 7 10 14 14 14 15 18 17 18 19 20 21 22 22 22 18 18 18 16 16 20 23 25 25 30 31 30 28 23 24 25 21 23 21 25 23 21 22 21
Wind_Direction
4 359 354 346 339 336 336 336 334 322 297 260 245 229 233 241 255 260 239 230 220 238 206 207 218 224 224 231 228 237 255 249 246 242 269 140 193 189 142 135 156 153 115 144 153
2 358 353 346 337 330 327 327 325 318 291 258 240 233 234 255 263 254 236 233 229 219 203 212 217 218 221 227 226 230 231 246 255 260 239 155 203 182 173 164 152 150 127 143 154
358 354 349 344 339 331 322 322 322 310 284 253 234 232 233 263 285 243 219 231 219 206 206 225 227 222 230 228 223 224 242 259 277 288 291 159 206 182 207 180 174 162 154 155 161
355 352 347 341 338 333 323 321 322 312 280 235 230 225 231 241 264 146 212 220 209 205 214 220 222 227 236 235 232 231 245 249 283 276 254 259 209 177 215 200 181 171 166 162 170
352 350 346 340 336 332 325 324 327 319 280 234 212 223 224 232 253 216 219 212 198 195 210 212 220 223 231 240 234 237 243 244 237 257 236 241 204 189 217 151 160 165 171 172 177
350 348 346 341 336 331 326 323 326 317 281 232 211 209 226 249 192 210 180 176 185 198 212 214 220 228 241 248 241 237 243 253 243 233 230 238 210 197 203 166 177 168 179 181 180
348 347 347 343 339 335 331 322 319 284 273 236 216 218 245 239 235 221 190 190 193 203 207 215 236 234 238 258 250 247 268 238 245 231 212 233 213 189 189 179 185 182 189 188 186
348 348 346 345 343 343 336 324 319 275 264 241 230 229 255 232 225 204 197 199 204 206 222 209 223 234 244 244 260 240 240 246 221 220 213 203 222 182 191 185 195 196 195 194 190
348 349 347 345 349 345 341 331 319 293 262 240 242 225 267 220 210 204 199 206 204 211 215 215 227 233 214 245 229 218 233 229 240 197 208 207 233 203 208 187 210 201 205 200 198
346 347 348 344 348 352 346 342 318 299 249 247 246 246 236 241 204 208 207 210 210 213 213 220 222 222 229 219 225 221 224 245 223 191 208 219 234 248 208 185 209 218 210 209 209
345 344 347 343 346 355 358 309 271 225 224 262 275 254 206 205 211 211 203 207 210 218 221 203 224 221 227 223 244 261 237 228 251 216 205 232 231 230 244 214 229 219 223 214 215
346 344 345 341 331 7 14 22 11 316 296 270 249 254 249 231 247 217 201 207 207 224 217 237 227 249 235 236 227 244 257 257 236 224 222 245 241 243 236 222 215 227 226 222 213
348 344 343 346 27 12 21 4 329 307 266 285 222 230 216 222 231 221 202 211 217 228 238 232 231 203 251 228 243 236 239 239 246 223 223 247 256 246 235 239 235 235 230 229 219
348 346 344 350 342 335 360 341 330 284 271 147 191 179 205 226 227 225 207 220 228 239 235 239 243 217 246 235 219 239 223 244 248 230 224 209 250 231 232 227 226 222 229 225 218
348 345 349 347 333 4 325 329 315 290 277 92 125 99 220 236 32 208 214 222 236 223 254 235 230 228 237 232 231 242 262 212 239 237 242 252 233 259 249 212 220 218 224 222 219
348 340 343 350 337 313 326 319 301 237 239 131 233 230 247 200 223 134 208 227 231 252 240 250 267 238 240 235 237 250 239 249 244 240 234 236 240 236 241 209 203 214 216 223 225
346 339 346 23 334 325 320 302 249 245 106 126 290 285 282 266 238 229 196 211 222 223 239 231 241 223 240 243 199 232 227 229 224 226 235 235 237 243 262 354 202 202 188 195 227
349 343 354 345 333 329 317 263 259 291 310 85 294 286 275 284 241 221 246 232 215 245 252 232 230 223 203 229 227 203 228 218 233 236 239 218 232 240 261 157 166 165 191 206 233
351 360 8 333 331 322 289 258 291 9 10 335 314 275 262 247 245 228 243 245 244 228 236 257 255 266 215 201 229 244 209 246 263 274 274 265 194 223 156 238 181 190 216 219 215
354 354 338 339 325 300 264 264 329 37 342 311 290 302 293 289 215 267 249 283 247 254 316 258 269 267 230 226 232 239 264 226 233 252 251 249 255 211 185 189 188 205 194 164 189
359 311 345 339 328 250 262 14 342 350 345 326 311 304 300 296 294 284 285 75 356 287 267 269 256 249 261 202 235 221 240 248 252 227 243 253 249 241 185 170 176 192 178 167 187
354 338 343 346 299 1 355 351 334 330 329 312 297 289 290 293 286 287 274 313 10 322 284 288 266 244 238 252 237 234 253 226 231 240 250 258 252 113 66 127 166 177 158 256 204
348 330 350 9 19 350 341 325 319 343 343 321 311 310 321 303 292 268 267 111 20 5 15 352 261 257 250 248 253 252 236 247 259 231 233 243 241 257 259 196 185 220 237 200 221
341 343 354 10 57 344 348 322 331 334 321 351 315 297 289 294 295 277 267 261 152 279 47 325 268 273 260 253 246 240 236 245 239 245 229 242 246 244 244 174 203 216 216 226 206
9 61 357 321 354 334 326 308 329 327 332 327 321 312 316 314 300 292 300 300 277 238 265 268 275 276 270 275 281 283 257 239 269 267 238 244 252 247 255 227 60 27 291 222 224
359 349 333 293 316 307 273 356 329 324 323 312 300 313 311 295 296 297 301 303 290 304 302 290 271 273 272 268 264 268 268 272 257 244 251 255 260 274 288 295 291 271 259 266 276
6 347 338 306 319 311 4 322 316 313 304 298 299 302 298 303 321 288 289 281 276 280 280 275 277 277 276 272 265 257 253 254 256 260 259 253 255 265 267 274 275 276 269 264 262